Theta_e
322 332 340 339 328 329 342 344 358 361 356 357 359 360 356 349 350 352 351 350 350 349 347 348 348 348 348 348 349 349 350 349 348 347 349 348 348 349 345 345 344 344 346 345
324 331 333 327 325 328 350 357 359 355 353 356 356 358 357 355 353 351 351 351 349 348 348 348 348 348 348 349 350 351 350 348 347 349 346 347 348 347 346 346 345 347 346 346
324 327 328 326 325 329 331 342 357 357 354 354 353 359 356 354 350 349 346 348 348 348 348 349 348 348 348 348 350 351 348 348 346 347 346 344 345 346 347 346 347 347 348 345
331 324 328 324 326 327 333 329 353 353 353 356 350 359 358 355 354 352 349 345 347 348 348 348 348 348 348 348 349 350 349 347 347 346 348 345 348 346 345 345 347 346 347 347
327 326 325 325 325 324 328 329 352 353 354 355 356 357 356 356 358 353 350 348 345 347 347 348 348 348 348 348 348 349 350 349 348 346 348 348 348 345 344 347 346 347 346 347
324 321 324 326 324 325 340 345 349 350 353 357 354 356 357 361 359 356 350 349 346 345 347 347 347 348 348 348 348 348 349 348 348 346 346 346 346 346 349 349 349 347 349 346
323 323 321 321 323 323 335 343 348 350 354 346 345 356 350 353 351 354 352 350 347 345 347 348 348 348 347 347 347 347 349 349 349 348 348 347 346 346 347 348 350 351 351 351
325 324 323 321 323 324 332 335 340 347 348 346 349 356 351 349 348 349 351 349 348 346 345 348 347 347 347 347 347 347 348 349 349 349 348 347 347 347 346 345 347 351 351 349
324 324 324 321 322 323 324 326 330 338 341 347 354 351 347 352 354 350 351 351 348 345 346 347 347 347 346 345 347 347 347 348 349 348 349 346 346 347 348 346 347 348 347 349
323 325 324 325 321 322 324 325 328 333 345 346 354 355 355 358 354 352 353 352 348 345 347 347 346 347 346 345 347 347 347 346 346 348 349 346 347 347 347 347 346 347 348 349
323 325 327 325 325 325 325 326 327 331 334 341 349 353 349 354 355 357 355 352 350 347 348 348 347 347 345 345 346 348 349 348 344 345 349 348 346 349 347 348 347 347 348 347
321 326 329 328 324 322 326 327 329 329 337 342 346 350 351 351 353 351 352 352 352 349 348 349 348 347 347 346 345 348 348 348 346 344 344 348 347 345 347 348 347 347 344 346
322 325 331 329 323 322 325 322 327 331 336 343 338 345 351 352 352 351 350 350 347 348 349 348 349 348 347 346 345 346 347 348 348 348 345 349 345 346 346 348 346 345 346 347
321 323 329 329 327 324 325 321 325 331 331 337 338 351 353 352 352 350 349 347 346 345 345 344 348 347 345 345 345 344 344 344 344 345 344 345 347 347 347 346 346 347 347 348
321 326 324 322 321 322 324 333 323 328 330 335 340 350 352 349 347 346 344 342 343 343 342 340 341 347 346 345 343 340 342 342 342 342 341 341 340 341 341 341 341 343 345 347
319 327 324 326 323 321 323 331 332 334 333 340 340 348 347 344 344 343 342 341 341 340 338 336 337 338 339 343 340 340 342 340 342 342 342 341 340 340 339 339 340 340 341 342
324 327 328 327 325 326 325 324 337 340 341 343 346 347 348 345 343 341 340 339 339 337 335 334 334 332 331 332 336 336 339 341 342 342 341 340 340 339 338 337 337 337 338 339
324 326 324 330 328 330 325 321 329 342 344 344 344 345 345 342 339 338 337 336 334 333 333 330 326 324 324 325 327 328 331 334 334 334 334 334 335 334 333 333 333 334 334 335
318 324 325 325 329 329 324 322 324 329 334 342 344 343 340 338 336 335 333 334 334 333 326 322 321 321 320 320 320 322 321 323 326 324 325 326 326 326 327 324 325 328 331 332
317 321 323 324 326 330 329 323 323 330 331 341 341 340 339 336 341 332 328 327 328 325 322 320 319 319 318 319 320 319 317 317 316 317 318 319 321 324 324 325 324 326 330 332
321 320 322 323 325 323 322 323 322 327 329 334 340 339 336 342 339 327 323 324 325 321 318 317 316 315 315 315 316 315 315 315 314 315 315 317 317 318 318 320 321 328 325 323
325 322 321 319 322 322 322 324 327 326 325 332 340 337 338 330 328 325 322 323 323 321 318 316 317 316 314 314 315 314 314 313 313 314 314 314 315 315 316 316 316 317 318 318
325 322 326 323 324 322 321 322 321 321 323 330 335 332 328 327 326 323 324 323 322 321 319 317 315 313 312 312 312 312 311 311 311 311 311 311 312 312 312 313 313 314 315 314
321 318 326 326 323 322 321 322 324 324 325 326 329 326 326 326 324 323 320 318 318 317 316 314 313 312 310 310 310 309 308 309 309 309 308 308 309 309 309 309 310 310 310 310
321 320 324 325 323 322 320 320 320 323 324 325 325 324 324 324 323 320 318 314 312 313 313 313 312 311 310 309 308 307 307 307 306 305 305 305 305 305 305 304 306 305 303 305
321 323 327 326 322 322 321 318 317 321 324 324 324 322 321 322 321 317 315 313 313 311 310 311 311 310 308 308 307 307 307 306 305 304 304 303 303 303 303 302 301 299 298 298
Wind_Speed
5 6 12 11 5 4 8 5 8 5 4 6 5 11 18 17 17 17 15 16 16 16 19 17 17 17 16 15 15 15 13 14 16 14 10 9 9 8 7 7 7 6 5 4
7 14 7 4 5 6 8 10 7 10 3 7 8 4 15 18 17 17 17 17 17 14 14 17 20 19 20 19 17 16 16 16 18 14 15 12 12 12 8 8 7 6 6 5
13 4 9 7 6 8 4 3 8 7 9 11 10 2 9 5 6 7 8 15 17 17 17 16 19 22 20 21 21 19 18 18 17 14 15 14 12 10 10 10 8 6 5 6
9 4 13 8 10 7 7 7 9 17 7 4 3 2 8 12 10 14 16 10 17 18 18 19 22 23 23 24 20 18 20 20 17 15 13 15 12 9 11 10 9 7 6 4
4 11 12 11 7 7 1 12 13 15 7 7 9 4 4 14 16 17 18 19 15 18 19 19 24 27 25 21 22 21 20 21 19 18 15 13 11 9 9 7 8 9 6 5
4 2 7 8 7 8 9 15 12 5 2 3 11 8 6 14 27 21 25 22 20 16 19 21 28 19 21 20 19 20 20 22 21 19 18 16 14 9 8 7 8 9 8 6
4 5 2 3 6 7 9 14 5 3 3 4 3 9 7 16 10 25 27 23 20 17 18 18 20 22 22 23 23 21 20 20 21 20 18 16 13 10 9 8 8 10 8 8
8 9 9 7 9 6 13 11 6 7 6 4 6 7 1 4 11 16 23 22 22 17 18 19 24 26 25 26 22 20 19 18 17 18 16 15 13 10 7 9 9 8 8 8
4 5 1 6 6 12 7 9 7 1 1 5 5 3 3 4 9 15 20 21 21 16 17 19 23 24 23 22 22 21 18 18 16 16 15 16 14 11 8 6 5 8 9 7
6 3 3 5 7 3 7 9 10 5 8 7 4 3 4 8 9 13 16 20 18 18 15 10 14 19 19 19 21 21 17 18 20 17 16 15 14 12 9 7 5 6 10 9
4 3 4 3 9 12 6 5 3 6 3 9 6 4 3 8 12 14 13 14 15 15 12 9 14 17 19 17 16 15 16 17 23 20 18 17 16 13 12 10 7 3 5 6
2 2 4 3 2 3 2 10 13 9 10 1 3 2 3 6 11 13 13 12 11 12 12 11 12 14 17 20 13 6 11 15 20 25 19 17 16 15 13 12 10 7 6 6
4 1 3 5 4 3 2 1 3 2 3 9 8 3 3 8 10 13 13 11 9 8 9 7 9 11 14 16 12 6 9 13 13 12 15 14 16 13 14 12 11 10 8 8
1 2 4 5 1 1 2 2 3 7 9 6 6 7 11 11 10 10 10 9 8 6 5 5 7 13 16 20 17 11 10 10 10 11 13 13 11 10 7 8 8 7 7 8
1 3 3 3 2 8 6 5 3 7 2 9 9 12 16 16 14 11 9 10 9 6 6 5 4 11 19 20 20 22 18 11 13 13 16 20 17 14 11 10 9 7 4 3
3 2 1 3 1 5 4 10 5 3 1 2 6 8 8 14 13 13 11 10 10 9 8 7 5 10 13 13 15 12 13 13 15 18 19 21 18 11 9 8 8 8 9 8
2 2 3 4 5 4 4 7 7 1 1 1 5 4 16 17 15 14 13 11 9 10 9 8 8 10 17 16 17 16 16 16 14 15 15 14 14 9 7 6 7 7 6 7
3 4 1 3 4 8 5 4 4 3 3 3 4 4 14 13 11 12 12 12 12 11 9 9 14 17 20 21 23 23 21 21 20 19 17 14 14 14 12 10 11 8 6 7
3 2 3 3 3 3 3 4 5 7 3 1 5 10 14 15 15 10 12 12 14 14 17 16 16 19 22 22 22 27 24 23 24 21 19 17 16 15 12 11 11 10 6 8
4 4 3 1 3 5 4 4 6 6 3 3 7 13 16 15 7 6 12 15 17 19 21 20 20 23 23 23 24 27 24 25 22 18 16 15 14 11 11 10 14 13 14 16
2 2 5 5 5 2 4 12 3 3 3 6 7 14 18 14 4 15 12 14 18 19 21 21 20 17 18 14 18 19 17 18 17 17 17 17 17 16 15 14 15 17 18 20
1 1 1 2 2 3 7 1 3 5 6 5 8 11 12 7 17 18 15 14 19 20 18 18 18 15 11 9 12 14 14 11 14 14 14 13 13 12 14 15 16 16 13 14
2 2 1 2 2 3 4 3 7 8 8 4 6 9 14 15 16 16 15 16 19 19 17 14 15 14 10 9 9 12 10 10 12 13 12 12 13 12 11 12 11 11 10 10
1 1 2 1 2 2 6 6 7 7 4 1 9 14 16 17 16 17 15 16 19 17 13 12 13 13 11 9 9 11 10 11 12 12 12 11 12 12 10 9 10 10 9 8
1 3 2 3 4 3 3 6 7 7 4 6 8 11 15 18 16 16 13 14 18 13 12 13 11 10 10 9 9 9 10 11 12 12 12 11 11 13 13 12 11 12 13 9
4 3 3 2 2 2 2 5 3 4 2 4 11 11 13 18 17 19 14 13 22 14 9 8 10 11 10 8 8 9 9 10 12 13 12 11 12 12 11 12 14 15 13 11
Wind_Direction
154 195 199 195 206 125 154 182 124 103 40 90 3 155 170 180 200 197 183 189 189 194 194 191 194 192 189 193 195 194 200 193 184 188 172 169 170 166 161 167 162 157 147 130
161 213 190 212 208 133 125 147 99 89 44 91 48 171 167 183 205 198 186 192 193 188 187 189 195 196 197 195 197 197 203 198 184 188 185 180 170 170 177 187 182 184 189 197
189 186 170 185 192 172 151 145 155 133 121 74 100 32 181 148 166 179 191 202 200 193 190 194 194 198 200 200 199 197 199 192 190 190 185 183 178 173 180 188 190 193 195 187
190 133 169 173 191 196 173 203 138 135 144 130 191 198 229 184 173 216 217 201 203 205 198 195 196 201 202 205 203 200 198 197 198 192 179 178 182 190 200 200 193 192 196 193
143 159 168 176 183 190 54 173 151 161 98 138 194 164 200 194 204 197 211 218 208 206 204 197 202 203 204 201 201 203 202 203 205 201 195 187 184 191 189 185 193 188 197 200
119 141 174 198 182 177 121 130 103 115 141 225 195 214 191 192 208 196 204 218 214 211 204 208 208 195 201 202 201 202 204 207 207 207 204 205 202 200 192 190 196 198 190 204
193 185 179 181 162 144 184 175 151 181 198 228 157 204 254 201 197 204 201 202 207 208 203 207 201 196 193 199 201 202 205 207 207 208 209 213 215 208 218 221 212 202 196 193
208 215 210 171 213 174 190 211 195 197 193 195 131 214 221 180 214 218 208 207 201 208 203 205 201 198 196 197 201 204 209 208 204 208 213 217 218 216 222 203 220 212 218 204
178 223 213 209 174 192 174 222 247 121 6 199 171 224 229 233 217 201 202 198 197 204 205 200 201 199 192 189 197 201 203 208 212 210 214 218 223 222 214 206 210 220 224 224
176 255 192 156 178 164 219 182 202 223 207 229 195 243 179 175 170 177 187 188 194 195 192 184 181 197 192 190 193 197 198 212 214 212 220 226 215 218 231 226 227 243 227 220
158 226 142 192 204 188 174 202 207 222 267 217 203 222 176 168 172 172 165 168 173 173 179 173 179 183 167 174 184 189 195 203 220 219 219 225 230 222 230 242 243 208 185 225
175 188 237 248 98 290 239 220 202 218 198 235 298 148 320 175 165 171 164 155 150 175 177 180 177 162 166 160 152 164 206 218 223 217 217 226 228 237 234 240 239 230 223 250
188 194 209 176 169 136 176 131 230 178 206 201 219 179 144 151 156 170 168 161 159 159 151 152 165 168 152 133 128 162 216 217 207 207 215 211 223 228 230 231 231 240 243 239
187 158 259 259 36 43 137 15 202 235 225 189 222 165 187 182 171 165 161 150 133 137 131 105 136 153 140 137 143 160 153 175 177 193 195 181 173 178 185 183 185 204 217 225
328 192 167 130 79 112 80 24 233 215 227 224 191 199 188 182 174 169 150 136 138 123 120 103 111 149 160 156 160 168 158 166 171 154 154 130 130 127 127 127 124 126 145 200
359 113 343 164 121 167 78 49 78 102 142 265 180 198 181 163 157 154 158 155 149 145 139 126 100 119 111 148 156 177 170 180 168 171 153 146 149 138 127 116 110 107 102 93
31 74 353 184 343 228 197 21 30 343 89 333 189 11 161 161 163 161 158 160 152 141 133 119 107 83 97 113 136 131 140 160 163 165 176 174 176 165 145 134 117 105 101 105
133 108 75 318 302 225 87 35 59 65 72 337 306 188 175 156 136 145 152 144 141 131 111 104 108 101 100 110 116 124 126 128 129 124 126 137 138 132 129 130 120 118 109 101
10 129 100 343 314 335 149 29 22 13 13 355 139 149 139 132 122 128 154 154 145 131 112 101 104 105 106 106 108 110 106 105 111 110 117 121 122 122 124 118 101 98 116 100
21 61 177 72 282 239 60 360 338 276 47 107 154 159 154 154 152 154 144 141 132 123 117 115 114 111 108 116 120 114 110 108 103 107 108 113 116 113 113 113 107 106 117 118
32 58 190 185 198 269 354 322 344 250 63 316 189 177 174 182 182 143 132 124 124 119 117 118 114 103 110 113 118 107 107 100 108 111 108 105 103 102 101 106 108 106 110 115
309 226 154 139 182 183 2 358 334 341 306 295 200 181 181 132 137 133 125 123 129 127 122 117 118 114 111 116 120 113 105 110 116 113 107 105 102 99 104 109 111 112 106 102
223 303 12 242 31 346 333 326 312 297 284 318 186 154 135 138 145 136 136 132 132 135 134 135 125 115 108 110 120 120 123 126 121 117 108 107 107 102 100 100 95 87 88 93
193 171 284 255 146 324 351 358 13 345 313 241 153 152 139 142 149 138 133 134 132 133 134 133 128 122 115 111 117 123 128 126 120 113 112 107 104 98 88 82 78 75 68 66
45 160 183 277 250 234 124 23 357 12 36 105 123 136 142 147 149 145 141 138 116 126 144 144 138 130 124 124 120 123 126 128 123 116 112 107 103 100 93 85 84 79 71 81
194 180 198 239 16 345 45 2 350 348 38 147 138 139 157 157 150 142 136 146 131 149 157 161 147 140 143 142 136 131 134 140 130 123 119 117 112 106 105 100 91 89 88 82